Date String (YYYY-MM-DD hh:mm:ss) UTC,Instrument flags,absolute air pressure of the measurement (hPa),sample flow rate (lpm),inlet stack bypass flow (lpm),air temperature of the measurement (°C),ambient temperature measured by the external sensor (°C),aerosol sample conditioner tube jacket temperature (°C),OPC LED temperature (°C),internal box temperature (°C),relative humidity of the measurement (%),span deviation,mass concentration of particles derived from Lorenz-Mie calculation of OPC scattering (μg/m³),mass concentration of particles derived from Lorenz-Mie calculation of OPC scattering (μg/m³),mass concentration of particles derived from Lorenz-Mie calculation of OPC scattering (μg/m³)
DateTimeUTC,F1_M11,P_M11,Q1_M11,Q2_M11,T1_M11,T2_M11,T3_M11,T4_M11,T5_M11,U1_M11,ZSPAN_M11,X0_M11,X2_M11,X1_M11
2024-04-28 04:00:00,SystemResetWarning,0826.1,5.00,000.00,021.8,021.1,000.0,030.4,023.6,027.2,0000.0,0002.55,0001.07,0000.97
2024-04-28 04:01:00,SystemResetWarning,0826.1,5.01,000.00,021.8,021.1,000.0,030.4,023.6,026.9,0000.0,0002.55,0001.05,0000.95
2024-04-28 04:02:00,SystemResetWarning,0826.1,5.00,000.00,021.8,021.1,000.0,030.4,023.6,026.8,0000.0,0002.52,0001.02,0000.92
2024-04-28 04:03:00,SystemResetWarning,0826.1,5.00,000.00,021.8,021.1,000.0,030.4,023.6,026.8,0000.0,0002.54,0001.03,0000.90
2024-04-28 04:04:00,SystemResetWarning,0826.1,5.01,000.00,021.8,021.1,000.0,030.4,023.6,026.7,0000.0,0002.55,0001.04,0000.90
2024-04-28 04:05:00,SystemResetWarning,0826.1,5.00,000.00,021.8,021.1,000.0,030.4,023.6,026.6,0000.0,0002.58,0001.06,0000.91
2024-04-28 04:06:00,SystemResetWarning,0826.0,5.00,000.00,021.8,021.1,000.0,030.4,023.6,026.6,0000.0,0002.61,0001.09,0000.94
2024-04-28 04:07:00,SystemResetWarning,0826.0,5.01,000.00,021.8,021.1,000.0,030.4,023.6,026.6,0000.0,0002.08,0001.09,0000.95
2024-04-28 04:08:00,SystemResetWarning,0826.0,5.00,000.00,021.8,021.1,000.0,030.4,023.6,026.6,0000.0,0001.29,0001.09,0000.96
2024-04-28 04:09:00,SystemResetWarning,0826.0,4.99,000.00,021.8,021.1,000.0,030.4,023.6,026.6,0000.0,0001.25,0001.10,0000.98
2024-04-28 04:10:00,SystemResetWarning,0826.0,4.99,000.00,021.8,021.1,000.0,030.4,023.6,026.6,0000.0,0001.26,0001.12,0001.01
2024-04-28 04:11:00,SystemResetWarning,0826.0,5.00,000.00,021.8,021.1,000.0,030.3,023.6,026.6,0000.0,0001.34,0001.18,0001.04
2024-04-28 04:12:00,SystemResetWarning,0826.0,5.01,000.00,021.8,021.1,000.0,030.3,023.6,026.6,0000.0,0001.36,0001.22,0001.06
2024-04-28 04:13:00,SystemResetWarning,0826.0,5.00,000.00,021.8,021.1,000.0,030.3,023.6,026.6,0000.0,0001.41,0001.26,0001.08
2024-04-28 04:14:00,SystemResetWarning,0825.9,4.99,000.00,021.8,021.1,000.0,030.3,023.6,026.6,0000.0,0001.38,0001.24,0001.09
2024-04-28 04:15:00,SystemResetWarning,0825.9,5.00,000.00,021.8,021.1,000.0,030.3,023.6,026.5,0000.0,0001.41,0001.24,0001.08
2024-04-28 04:16:00,SystemResetWarning,0825.9,5.01,000.00,021.8,021.1,000.0,030.3,023.6,026.5,0000.0,0001.39,0001.21,0001.05
2024-04-28 04:17:00,SystemResetWarning,0825.9,5.01,000.00,021.8,021.1,000.0,030.3,023.6,026.5,0000.0,0001.37,0001.18,0001.02
2024-04-28 04:18:00,SystemResetWarning,0825.9,4.99,000.00,021.8,021.1,000.0,030.3,023.6,026.5,0000.0,0001.42,0001.17,0000.99
2024-04-28 04:19:00,SystemResetWarning,0825.9,5.00,000.00,021.8,021.1,000.0,030.3,023.6,026.5,0000.0,0001.37,0001.13,0000.97
2024-04-28 04:20:00,SystemResetWarning,0825.9,5.00,000.00,021.8,021.1,000.0,030.3,023.6,026.4,0000.0,0001.34,0001.10,0000.93
2024-04-28 04:21:00,SystemResetWarning,0825.9,5.01,000.00,021.8,021.1,000.0,030.3,023.6,026.4,0000.0,0001.30,0001.05,0000.89
2024-04-28 04:22:00,SystemResetWarning,0825.9,5.00,000.00,021.8,021.1,000.0,030.3,023.6,026.4,0000.0,0001.23,0000.99,0000.85
2024-04-28 04:23:00,SystemResetWarning,0825.9,5.01,000.00,021.8,021.1,000.0,030.3,023.6,026.4,0000.0,0001.24,0000.97,0000.82
2024-04-28 04:24:00,SystemResetWarning,0825.9,5.00,000.00,021.8,021.1,000.0,030.3,023.6,026.5,0000.0,0001.20,0000.93,0000.81
2024-04-28 04:25:00,SystemResetWarning,0825.9,4.99,000.00,021.8,021.1,000.0,030.3,023.6,026.5,0000.0,0001.19,0000.92,0000.80
2024-04-28 04:26:00,SystemResetWarning,0825.9,4.99,000.00,021.8,021.1,000.0,030.3,023.6,026.4,0000.0,0001.13,0000.89,0000.78
2024-04-28 04:27:00,SystemResetWarning,0825.9,5.00,000.00,021.8,021.1,000.0,030.3,023.6,026.4,0000.0,0001.07,0000.85,0000.76
2024-04-28 04:28:00,SystemResetWarning,0825.9,5.01,000.00,021.8,021.1,000.0,030.3,023.6,026.4,0000.0,0001.03,0000.83,0000.74
2024-04-28 04:29:00,SystemResetWarning,0826.0,5.01,000.00,021.8,021.1,000.0,030.3,023.6,026.4,0000.0,0000.93,0000.78,0000.72
2024-04-28 04:30:00,SystemResetWarning,0825.9,4.99,000.00,021.8,021.1,000.0,030.3,023.6,026.3,0000.0,0001.01,0000.77,0000.70
2024-04-28 04:31:00,SystemResetWarning,0825.9,4.99,000.00,021.8,021.1,000.0,030.3,023.6,026.3,0000.0,0001.04,0000.77,0000.69
2024-04-28 04:32:00,SystemResetWarning,0825.9,4.99,000.00,021.8,021.1,000.0,030.3,023.6,026.3,0000.0,0001.03,0000.77,0000.69
2024-04-28 04:33:00,SystemResetWarning,0825.9,5.02,000.00,021.8,021.1,000.0,030.3,023.6,026.3,0000.0,0001.24,0000.76,0000.68
2024-04-28 04:34:00,SystemResetWarning,0825.9,5.01,000.00,021.8,021.1,000.0,030.3,023.6,026.0,0000.0,0001.83,0000.74,0000.67
2024-04-28 04:35:00,SystemResetWarning,0825.9,4.99,000.00,021.8,021.1,000.0,030.3,023.6,025.9,0000.0,0001.82,0000.73,0000.66
2024-04-28 04:36:00,SystemResetWarning,0825.9,4.99,000.00,021.8,021.1,000.0,030.3,023.6,025.9,0000.0,0001.80,0000.71,0000.65
2024-04-28 04:37:00,SystemResetWarning,0825.9,5.00,000.00,021.8,021.1,000.0,030.3,023.6,025.8,0000.0,0001.79,0000.71,0000.65
2024-04-28 04:38:00,SystemResetWarning,0825.9,5.01,000.00,021.8,021.1,000.0,030.3,023.6,025.9,0000.0,0001.79,0000.72,0000.66
2024-04-28 04:39:00,SystemResetWarning,0825.9,5.00,000.00,021.8,021.1,000.0,030.3,023.6,026.0,0000.0,0001.81,0000.72,0000.66
2024-04-28 04:40:00,SystemResetWarning,0825.8,5.00,000.00,021.8,021.1,000.0,030.3,023.6,025.9,0000.0,0001.84,0000.73,0000.66
2024-04-28 04:41:00,SystemResetWarning,0825.8,5.00,000.00,021.8,021.1,000.0,030.3,023.6,025.9,0000.0,0001.75,0000.72,0000.66
2024-04-28 04:42:00,SystemResetWarning,0825.8,4.99,000.00,021.8,021.1,000.0,030.3,023.6,025.9,0000.0,0001.69,0000.69,0000.65
2024-04-28 04:43:00,SystemResetWarning,0825.8,5.00,000.00,021.8,021.1,000.0,030.3,023.6,025.9,0000.0,0001.68,0000.68,0000.64
2024-04-28 04:44:00,SystemResetWarning,0825.8,4.99,000.00,021.7,021.1,000.0,030.3,023.6,026.0,0000.0,0001.51,0000.67,0000.63
2024-04-28 04:45:00,SystemResetWarning,0825.8,5.00,000.00,021.7,021.1,000.0,030.3,023.6,026.0,0000.0,0000.74,0000.66,0000.63
2024-04-28 04:46:00,SystemResetWarning,0825.8,5.01,000.00,021.7,021.1,000.0,030.3,023.6,025.8,0000.0,0000.72,0000.64,0000.61
2024-04-28 04:47:00,SystemResetWarning,0825.8,5.00,000.00,021.7,021.1,000.0,030.3,023.6,025.8,0000.0,0000.71,0000.64,0000.60
2024-04-28 04:48:00,SystemResetWarning,0825.8,5.00,000.00,021.7,021.1,000.0,030.3,023.6,025.7,0000.0,0000.70,0000.63,0000.60
2024-04-28 04:49:00,SystemResetWarning,0825.8,4.99,000.00,021.7,021.1,000.0,030.3,023.6,025.7,0000.0,0000.70,0000.63,0000.60
2024-04-28 04:50:00,SystemResetWarning,0825.8,5.00,000.00,021.7,021.1,000.0,030.3,023.6,025.7,0000.0,0000.69,0000.64,0000.61
2024-04-28 04:51:00,SystemResetWarning,0825.8,5.01,000.00,021.7,021.1,000.0,030.3,023.6,025.8,0000.0,0000.70,0000.65,0000.62
2024-04-28 04:52:00,SystemResetWarning,0825.8,5.01,000.00,021.7,021.1,000.0,030.3,023.6,026.0,0000.0,0000.67,0000.64,0000.63
2024-04-28 04:53:00,SystemResetWarning,0825.8,5.00,000.00,021.7,021.1,000.0,030.3,023.6,026.4,0000.0,0000.68,0000.65,0000.64
2024-04-28 04:54:00,SystemResetWarning,0825.8,5.00,000.00,021.7,021.1,000.0,030.3,023.6,026.0,0000.0,0000.70,0000.66,0000.64
2024-04-28 04:55:00,SystemResetWarning,0825.7,4.99,000.00,021.7,021.1,000.0,030.3,023.6,026.0,0000.0,0000.73,0000.68,0000.65
2024-04-28 04:56:00,SystemResetWarning,0825.8,4.99,000.00,021.7,021.1,000.0,030.3,023.6,026.0,0000.0,0000.74,0000.68,0000.65
2024-04-28 04:57:00,SystemResetWarning,0825.7,5.00,000.00,021.7,021.1,000.0,030.3,023.6,025.9,0000.0,0000.74,0000.69,0000.66
2024-04-28 04:58:00,SystemResetWarning,0825.7,5.00,000.00,021.7,021.1,000.0,030.3,023.6,025.9,0000.0,0000.77,0000.71,0000.67
2024-04-28 04:59:00,SystemResetWarning,0825.7,5.00,000.00,021.7,021.1,000.0,030.3,023.6,025.9,0000.0,0000.85,0000.73,0000.68
